Terminal Aerodrome Forecast
Issued by NWS Newport/Morehead City, NC

Home | Current Version | Previous Version | Graphics & Text | Print | Product List | Glossary On
Versions: 1 2 3 4 5 6 7 8 9 10 11 12 13 14 15 16 17 18 19 20 21 22 23
000
FTUS42 KMHX 010415 AAA
TAFEWN
TAF AMD
KEWN 010415Z 0104/0124 00000KT 3/4SM BR BKN005
     FM010800 00000KT 3/4SM BR VV003
     FM011300 VRB03KT P6SM BKN025=

USA.gov is the U.S. government's official web portal to all federal, state and local government web resources and services.